Regional Weather Roundup
Issued by NWS Cleveland, OH

Home | Current Version | Previous Version | Text Only | Print | Product List | Glossary Off
Versions: 1 2 3 4 5 6 7 8 9 10 11 12 13 14 15 16 17 18 19 20 21 22 23 24 25 26 27 28 29 30 31 32 33 34 35 36 37 38 39 40 41 42 43 44 45 46 47 48 49 50

000
ASUS41 KCLE 201900
RWRCLE
OHIO REGIONAL WEATHER ROUNDUP
NATIONAL WEATHER SERVICE WILMINGTON, OH
200 PM EST SAT JAN 20 2018

NOTE: "FAIR" INDICATES FEW OR NO CLOUDS BELOW 12,000 FEET WITH NO
SIGNIFICANT WEATHER AND/OR OBSTRUCTIONS TO VISIBILITY.

OHZ001>008-015>018-024>027-034-035-043-044-202000-
   NORTHWEST OHIO

CITY           SKY/WX    TMP DP  RH WIND       PRES   REMARKS
DEFIANCE       FAIR      40  29  64 SW13      29.98
FINDLAY        FAIR      40  29  64 SW13      29.98F
TOLEDO EXPRESS FAIR      40  31  70 SW16      29.96S
TOLEDO EXEC    FAIR      40  30  67 SW15G22   29.97S
LIMA           FAIR      39  30  70 SW15      30.00F
$$

OHZ009>014-019>023-028>033-038-089-202000-
   NORTHEAST OHIO

CITY           SKY/WX    TMP DP  RH WIND       PRES   REMARKS
CLE-HOPKINS    FAIR      42  28  57 SW14G25   30.00F
CLE-LAKEFRONT  FAIR      42  28  57 SW16      29.97F
CUY CO. ARPT   MOSUNNY   43  28  56 SW20      29.97F
LORAIN-ELYRIA  FAIR      39  24  55 SW17G23   29.98F
ASHTABULA      FAIR      42  26  53 SW14G20   29.96F
AKRON-CANTON   FAIR      41  26  55 SW14G23   29.99F
WOOSTER        NOT AVBL
MANSFIELD      FAIR      40  28  62 SW20G25   29.99F
YOUNGSTOWN     PTSUNNY   41  26  55 SW15G23   29.97F
$$

OHZ042-051>053-060>062-070>072-077>081-202000-
  SOUTHWEST OHIO

CITY           SKY/WX    TMP DP  RH WIND       PRES   REMARKS
CINC-COVINGTON PTSUNNY   47  32  56 SW9       30.07F
CINC-LUNKEN    FAIR      48  31  51 SW15      30.09F
HAMILTON       FAIR      50  31  48 SW9       30.07F
DAYTON         NOT AVBL
WRIGHT-PAT AFB FAIR      43  22  43 SW13      30.04F
DAYTON GENERAL FAIR      46  29  51 SW10      30.04F
WILMINGTON     FAIR      42  30  62 SW15      30.05F
$$

OHZ036-037-039>041-045>050-054>059-063>069-073>076-082>088-202000-
  CENTRAL AND SOUTHEAST OHIO

CITY           SKY/WX    TMP DP  RH WIND       PRES   REMARKS
COLUMBUS       PTSUNNY   42  27  55 SW15G21   30.05F
OSU AIRPORT    FAIR      42  28  57 SW16      30.03F
BOLTON FIELD   SUNNY     41  28  60 SW14      30.06S
RICKENBACK AFB NOT AVBL
NEWARK         FAIR      42  26  53 SW14      30.04F
MARION         FAIR      40  27  59 SW13      30.02F
LANCASTER      FAIR      43  27  53 SW12      30.06F
ZANESVILLE     FAIR      47  27  45 SW15G21   30.03F
NEW PHILLY     FAIR      44  26  49 SW8       30.03F
$$




USA.gov is the U.S. government's official web portal to all federal, state and local government web resources and services.